| time (UTC) | temp F | wind direction | speed MPH | gust MPH | rain 1hr in | rain 24hr in | rain mn in | humidity % | barometer mb |
| 20260510231047 | 79 | 0 | 0.0 | 4.0 | 0.00 | 0.00 | 0.00 | 33 | 1014.7 |
| 20260510230548 | 80 | 100 | 1.0 | 4.0 | 0.00 | 0.00 | 0.00 | 32 | 1014.7 |
| 20260510230055 | 80 | 94 | 0.0 | 4.0 | 0.00 | 0.00 | 0.00 | 32 | 1014.7 |
| 20260510225551 | 81 | 0 | 1.0 | 4.0 | 0.00 | 0.00 | 0.00 | 32 | 1014.7 |
| 20260510225049 | 81 | 80 | 0.0 | 4.0 | 0.00 | 0.00 | 0.00 | 30 | 1014.7 |
| 20260510224605 | 81 | 98 | 1.0 | 4.0 | 0.00 | 0.00 | 0.00 | 30 | 1014.6 |
| 20260510224048 | 82 | 102 | 1.0 | 4.0 | 0.00 | 0.00 | 0.00 | 30 | 1014.7 |
| 20260510223546 | 82 | 87 | 1.0 | 4.0 | 0.00 | 0.00 | 0.00 | 32 | 1014.6 |
| 20260510223111 | 82 | 60 | 2.0 | 5.0 | 0.00 | 0.00 | 0.00 | 31 | 1014.8 |
| 20260510222545 | 83 | 97 | 1.0 | 5.0 | 0.00 | 0.00 | 0.00 | 29 | 1014.7 |
| 20260510222048 | 83 | 103 | 0.0 | 4.0 | 0.00 | 0.00 | 0.00 | 29 | 1014.9 |
| 20260510221555 | 83 | 97 | 0.0 | 4.0 | 0.00 | 0.00 | 0.00 | 28 | 1014.8 |
| 20260510221049 | 83 | 61 | 1.0 | 4.0 | 0.00 | 0.00 | 0.00 | 29 | 1014.8 |
| 20260510220547 | 82 | 92 | 0.0 | 4.0 | 0.00 | 0.00 | 0.00 | 31 | 1014.7 |
| 20260510220051 | 82 | 92 | 2.0 | 6.0 | 0.00 | 0.00 | 0.00 | 29 | 1014.7 |
| 20260510215548 | 82 | 132 | 1.0 | 7.0 | 0.00 | 0.00 | 0.00 | 30 | 1014.7 |
| 20260510215049 | 82 | 70 | 2.0 | 7.0 | 0.00 | 0.00 | 0.00 | 30 | 1014.6 |
| 20260510214601 | 83 | 52 | 1.0 | 6.0 | 0.00 | 0.00 | 0.00 | 28 | 1014.7 |
| 20260510214047 | 83 | 51 | 2.0 | 6.0 | 0.00 | 0.00 | 0.00 | 29 | 1014.8 |
| 20260510213548 | 83 | 139 | 2.0 | 6.0 | 0.00 | 0.00 | 0.00 | 30 | 1014.7 |
| 20260510213057 | 83 | 107 | 2.0 | 5.0 | 0.00 | 0.00 | 0.00 | 29 | 1014.9 |
| 20260510212544 | 83 | 0 | 1.0 | 7.0 | 0.00 | 0.00 | 0.00 | 28 | 1014.8 |
| 20260510212048 | 82 | 143 | 1.0 | 7.0 | 0.00 | 0.00 | 0.00 | 28 | 1014.7 |
| 20260510211603 | 83 | 136 | 2.0 | 6.0 | 0.00 | 0.00 | 0.00 | 29 | 1014.7 |
| 20260510211048 | 83 | 108 | 2.0 | 4.0 | 0.00 | 0.00 | 0.00 | 31 | 1014.7 |
| 20260510210548 | 83 | 101 | 1.0 | 8.0 | 0.00 | 0.00 | 0.00 | 27 | 1014.7 |
| 20260510210055 | 82 | 302 | 1.0 | 8.0 | 0.00 | 0.00 | 0.00 | 27 | 1014.7 |
| 20260510205547 | 82 | 17 | 4.0 | 9.0 | 0.00 | 0.00 | 0.00 | 28 | 1014.7 |
| 20260510205050 | 82 | 132 | 2.0 | 9.0 | 0.00 | 0.00 | 0.00 | 30 | 1014.7 |
| 20260510204557 | 82 | 184 | 4.0 | 9.0 | 0.00 | 0.00 | 0.00 | 30 | 1014.7 |
| 20260510204047 | 82 | 225 | 2.0 | 8.0 | 0.00 | 0.00 | 0.00 | 30 | 1014.7 |
| 20260510203547 | 82 | 70 | 1.0 | 7.0 | 0.00 | 0.00 | 0.00 | 27 | 1014.7 |
| 20260510203056 | 82 | 133 | 2.0 | 5.0 | 0.00 | 0.00 | 0.00 | 25 | 1014.8 |
| 20260510202550 | 83 | 120 | 1.0 | 4.0 | 0.00 | 0.00 | 0.00 | 27 | 1014.7 |
| 20260510202047 | 82 | 176 | 0.0 | 9.0 | 0.00 | 0.00 | 0.00 | 28 | 1014.9 |
| 20260510201559 | 82 | 105 | 2.0 | 10.0 | 0.00 | 0.00 | 0.00 | 28 | 1014.9 |
| 20260510201047 | 82 | 22 | 4.0 | 10.0 | 0.00 | 0.00 | 0.00 | 28 | 1015.0 |
| 20260510200546 | 82 | 51 | 1.0 | 11.0 | 0.00 | 0.00 | 0.00 | 30 | 1015.0 |
| 20260510200056 | 82 | 160 | 3.0 | 11.0 | 0.00 | 0.00 | 0.00 | 29 | 1015.1 |
| 20260510195548 | 82 | 76 | 3.0 | 7.0 | 0.00 | 0.00 | 0.00 | 29 | 1015.2 |
| 20260510195045 | 82 | 142 | 3.0 | 9.0 | 0.00 | 0.00 | 0.00 | 30 | 1015.1 |
| 20260510194557 | 82 | 219 | 3.0 | 9.0 | 0.00 | 0.00 | 0.00 | 30 | 1015.1 |
| 20260510194047 | 82 | 94 | 3.0 | 10.0 | 0.00 | 0.00 | 0.00 | 30 | 1015.3 |
| 20260510193547 | 82 | 142 | 3.0 | 10.0 | 0.00 | 0.00 | 0.00 | 30 | 1015.1 |
| 20260510193056 | 82 | 97 | 3.0 | 5.0 | 0.00 | 0.00 | 0.00 | 30 | 1015.3 |
| 20260510192545 | 82 | 113 | 0.0 | 6.0 | 0.00 | 0.00 | 0.00 | 30 | 1015.3 |
| 20260510192049 | 82 | 279 | 1.0 | 8.0 | 0.00 | 0.00 | 0.00 | 27 | 1015.2 |
| 20260510191559 | 82 | 332 | 3.0 | 8.0 | 0.00 | 0.00 | 0.00 | 30 | 1015.4 |
| 20260510191047 | 82 | 29 | 2.0 | 10.0 | 0.00 | 0.00 | 0.00 | 30 | 1015.4 |
| 20260510190547 | 82 | 96 | 2.0 | 10.0 | 0.00 | 0.00 | 0.00 | 28 | 1015.3 |
| 20260510190103 | 82 | 165 | 2.0 | 5.0 | 0.00 | 0.00 | 0.00 | 29 | 1015.4 |
| 20260510185547 | 81 | 107 | 0.0 | 8.0 | 0.00 | 0.00 | 0.00 | 30 | 1015.4 |
| 20260510185046 | 81 | 178 | 2.0 | 8.0 | 0.00 | 0.00 | 0.00 | 29 | 1015.4 |
| 20260510184553 | 81 | 155 | 2.0 | 8.0 | 0.00 | 0.00 | 0.00 | 29 | 1015.4 |
| 20260510184048 | 81 | 149 | 1.0 | 9.0 | 0.00 | 0.00 | 0.00 | 27 | 1015.5 |
| 20260510183548 | 81 | 90 | 1.0 | 9.0 | 0.00 | 0.00 | 0.00 | 30 | 1015.6 |
| 20260510183052 | 81 | 67 | 3.0 | 9.0 | 0.00 | 0.00 | 0.00 | 31 | 1015.6 |
| 20260510182547 | 81 | 70 | 3.0 | 7.0 | 0.00 | 0.00 | 0.00 | 30 | 1015.5 |
| 20260510182048 | 81 | 78 | 2.0 | 8.0 | 0.00 | 0.00 | 0.00 | 30 | 1015.5 |
| 20260510181559 | 81 | 163 | 1.0 | 8.0 | 0.00 | 0.00 | 0.00 | 30 | 1015.6 |
| 20260510181046 | 81 | 95 | 2.0 | 6.0 | 0.00 | 0.00 | 0.00 | 33 | 1015.8 |
| 20260510180548 | 81 | 207 | 2.0 | 6.0 | 0.00 | 0.00 | 0.00 | 28 | 1015.8 |
| 20260510180117 | 80 | 84 | 2.0 | 9.0 | 0.00 | 0.00 | 0.00 | 31 | 1015.9 |
| 20260510175544 | 80 | 69 | 3.0 | 9.0 | 0.00 | 0.00 | 0.00 | 29 | 1015.9 |
| 20260510175047 | 81 | 72 | 2.0 | 6.0 | 0.00 | 0.00 | 0.00 | 32 | 1015.9 |
| 20260510174555 | 80 | 74 | 2.0 | 5.0 | 0.00 | 0.00 | 0.00 | 31 | 1015.9 |
| 20260510174050 | 80 | 167 | 1.0 | 5.0 | 0.00 | 0.00 | 0.00 | 31 | 1016.0 |
| 20260510173548 | 79 | 0 | 1.0 | 3.0 | 0.00 | 0.00 | 0.00 | 32 | 1016.0 |
| 20260510173110 | 79 | 158 | 1.0 | 5.0 | 0.00 | 0.00 | 0.00 | 30 | 1016.1 |
| 20260510172547 | 79 | 133 | 2.0 | 7.0 | 0.00 | 0.00 | 0.00 | 29 | 1016.1 |
| 20260510172048 | 79 | 140 | 2.0 | 8.0 | 0.00 | 0.00 | 0.00 | 29 | 1016.1 |
| 20260510171600 | 80 | 55 | 3.0 | 9.0 | 0.00 | 0.00 | 0.00 | 30 | 1016.1 |
| 20260510171048 | 80 | 48 | 2.0 | 9.0 | 0.00 | 0.00 | 0.00 | 30 | 1016.1 |
| 20260510170548 | 80 | 122 | 1.0 | 7.0 | 0.00 | 0.00 | 0.00 | 33 | 1016.1 |
| 20260510170112 | 79 | 82 | 2.0 | 7.0 | 0.00 | 0.00 | 0.00 | 31 | 1016.1 |
| 20260510165548 | 80 | 0 | 2.0 | 5.0 | 0.00 | 0.00 | 0.00 | 31 | 1016.2 |
| 20260510165044 | 80 | 80 | 3.0 | 7.0 | 0.00 | 0.00 | 0.00 | 34 | 1016.2 |
| 20260510164605 | 80 | 273 | 2.0 | 7.0 | 0.00 | 0.00 | 0.00 | 31 | 1016.3 |
| 20260510164047 | 80 | 311 | 2.0 | 5.0 | 0.00 | 0.00 | 0.00 | 31 | 1016.3 |
| 20260510163547 | 80 | 67 | 1.0 | 4.0 | 0.00 | 0.00 | 0.00 | 34 | 1016.3 |
| 20260510163056 | 79 | 225 | 2.0 | 4.0 | 0.00 | 0.00 | 0.00 | 32 | 1016.4 |
| 20260510162546 | 78 | 222 | 1.0 | 4.0 | 0.00 | 0.00 | 0.00 | 32 | 1016.5 |
| 20260510162049 | 78 | 290 | 1.0 | 6.0 | 0.00 | 0.00 | 0.00 | 32 | 1016.6 |
| 20260510161555 | 79 | 136 | 2.0 | 6.0 | 0.00 | 0.00 | 0.00 | 34 | 1016.5 |
| 20260510161047 | 78 | 130 | 1.0 | 6.0 | 0.00 | 0.00 | 0.00 | 34 | 1016.6 |
| 20260510160547 | 78 | 230 | 1.0 | 4.0 | 0.00 | 0.00 | 0.00 | 38 | 1016.6 |
| 20260510160054 | 78 | 200 | 0.0 | 5.0 | 0.00 | 0.00 | 0.00 | 36 | 1016.6 |
| 20260510155548 | 78 | 263 | 2.0 | 8.0 | 0.00 | 0.00 | 0.00 | 36 | 1016.5 |
| 20260510155048 | 77 | 0 | 2.0 | 8.0 | 0.00 | 0.00 | 0.00 | 39 | 1016.6 |
| 20260510154554 | 77 | 0 | 2.0 | 8.0 | 0.00 | 0.00 | 0.00 | 39 | 1016.6 |
| 20260510154047 | 77 | 240 | 2.0 | 8.0 | 0.00 | 0.00 | 0.00 | 40 | 1016.6 |
| 20260510153544 | 78 | 292 | 3.0 | 8.0 | 0.00 | 0.00 | 0.00 | 39 | 1016.6 |
| 20260510153057 | 78 | 140 | 1.0 | 3.0 | 0.00 | 0.00 | 0.00 | 47 | 1016.6 |
| 20260510152548 | 77 | 30 | 2.0 | 6.0 | 0.00 | 0.00 | 0.00 | 43 | 1016.6 |
| 20260510152047 | 76 | 98 | 1.0 | 6.0 | 0.00 | 0.00 | 0.00 | 44 | 1016.6 |
| 20260510151557 | 76 | 165 | 0.0 | 7.0 | 0.00 | 0.00 | 0.00 | 44 | 1016.6 |
| 20260510151048 | 76 | 0 | 4.0 | 7.0 | 0.00 | 0.00 | 0.00 | 44 | 1016.7 |
| 20260510150547 | 76 | 250 | 1.0 | 5.0 | 0.00 | 0.00 | 0.00 | 45 | 1016.6 |
| 20260510150055 | 75 | 145 | 2.0 | 5.0 | 0.00 | 0.00 | 0.00 | 46 | 1016.7 |
| 20260510145546 | 76 | 48 | 1.0 | 4.0 | 0.00 | 0.00 | 0.00 | 46 | 1016.7 |
| 20260510145044 | 75 | 157 | 1.0 | 3.0 | 0.00 | 0.00 | 0.00 | 48 | 1016.8 |
| 20260510144551 | 75 | 117 | 0.0 | 4.0 | 0.00 | 0.00 | 0.00 | 47 | 1016.7 |
| 20260510144049 | 74 | 169 | 1.0 | 4.0 | 0.00 | 0.00 | 0.00 | 48 | 1016.7 |
| 20260510143548 | 74 | 215 | 1.0 | 4.0 | 0.00 | 0.00 | 0.00 | 53 | 1016.7 |
| 20260510143050 | 73 | 142 | 0.0 | 5.0 | 0.00 | 0.00 | 0.00 | 53 | 1016.8 |
| 20260510142548 | 73 | 179 | 1.0 | 5.0 | 0.00 | 0.00 | 0.00 | 55 | 1016.7 |
| 20260510142047 | 72 | 114 | 1.0 | 4.0 | 0.00 | 0.00 | 0.00 | 58 | 1016.8 |
| 20260510141557 | 71 | 76 | 2.0 | 4.0 | 0.00 | 0.00 | 0.00 | 57 | 1016.7 |
| 20260510141048 | 72 | 139 | 2.0 | 4.0 | 0.00 | 0.00 | 0.00 | 56 | 1016.8 |
| 20260510140546 | 71 | 165 | 0.0 | 6.0 | 0.00 | 0.00 | 0.00 | 60 | 1016.7 |
| 20260510140052 | 71 | 146 | 2.0 | 6.0 | 0.00 | 0.00 | 0.00 | 59 | 1016.7 |
| 20260510135548 | 70 | 126 | 2.0 | 5.0 | 0.00 | 0.00 | 0.00 | 59 | 1016.8 |
| 20260510135048 | 70 | 153 | 1.0 | 5.0 | 0.00 | 0.00 | 0.00 | 61 | 1016.7 |
| 20260510134555 | 70 | 142 | 1.0 | 4.0 | 0.00 | 0.00 | 0.00 | 61 | 1016.6 |
| 20260510134047 | 70 | 157 | 0.0 | 2.0 | 0.00 | 0.00 | 0.00 | 65 | 1016.7 |
| 20260510133548 | 69 | 0 | 0.0 | 4.0 | 0.00 | 0.00 | 0.00 | 72 | 1016.6 |
| 20260510133055 | 68 | 0 | 1.0 | 5.0 | 0.00 | 0.00 | 0.00 | 71 | 1016.6 |
| 20260510132547 | 67 | 123 | 1.0 | 6.0 | 0.00 | 0.00 | 0.00 | 71 | 1016.5 |
| 20260510132045 | 67 | 155 | 1.0 | 6.0 | 0.00 | 0.00 | 0.00 | 74 | 1016.6 |
| 20260510131557 | 66 | 150 | 0.0 | 1.0 | 0.00 | 0.00 | 0.00 | 78 | 1016.6 |
| 20260510131048 | 66 | 0 | 0.0 | 2.0 | 0.00 | 0.00 | 0.00 | 80 | 1016.6 |
| 20260510130547 | 65 | 0 | 0.0 | 2.0 | 0.00 | 0.00 | 0.00 | 82 | 1016.6 |
| 20260510130055 | 63 | 158 | 0.0 | 2.0 | 0.00 | 0.00 | 0.00 | 84 | 1016.6 |
| 20260510125546 | 63 | 0 | 0.0 | 0.0 | 0.00 | 0.00 | 0.00 | 87 | 1016.6 |
| 20260510125048 | 62 | 0 | 0.0 | 0.0 | 0.00 | 0.00 | 0.00 | 89 | 1016.6 |
| 20260510124605 | 62 | 162 | 0.0 | 2.0 | 0.00 | 0.00 | 0.00 | 90 | 1016.5 |
| 20260510124048 | 61 | 0 | 0.0 | 2.0 | 0.00 | 0.00 | 0.00 | 90 | 1016.4 |
| 20260510123547 | 62 | 155 | 0.0 | 2.0 | 0.00 | 0.00 | 0.00 | 91 | 1016.4 |
| 20260510123058 | 61 | 0 | 0.0 | 1.0 | 0.00 | 0.00 | 0.00 | 92 | 1016.1 |
| 20260510122546 | 61 | 0 | 0.0 | 1.0 | 0.00 | 0.00 | 0.00 | 91 | 1016.1 |
| 20260510122047 | 61 | 0 | 0.0 | 1.0 | 0.00 | 0.00 | 0.00 | 93 | 1016.1 |
| 20260510121557 | 61 | 0 | 0.0 | 1.0 | 0.00 | 0.00 | 0.00 | 94 | 1016.0 |
| 20260510121047 | 61 | 0 | 0.0 | 1.0 | 0.00 | 0.00 | 0.00 | 96 | 1015.9 |
| 20260510120546 | 59 | 0 | 0.0 | 1.0 | 0.00 | 0.00 | 0.00 | 95 | 1015.7 |
| 20260510120053 | 58 | 0 | 0.0 | 0.0 | 0.00 | 0.00 | 0.00 | 95 | 1015.6 |
| 20260510115547 | 57 | 0 | 0.0 | 0.0 | 0.00 | 0.00 | 0.00 | 95 | 1015.5 |
| 20260510115047 | 57 | 0 | 0.0 | 0.0 | 0.00 | 0.00 | 0.00 | 95 | 1015.6 |
| 20260510114550 | 57 | 0 | 0.0 | 0.0 | 0.00 | 0.00 | 0.00 | 96 | 1015.5 |
| 20260510114048 | 57 | 0 | 0.0 | 0.0 | 0.00 | 0.00 | 0.00 | 96 | 1015.3 |
| 20260510113547 | 55 | 0 | 0.0 | 1.0 | 0.00 | 0.00 | 0.00 | 95 | 1015.3 |
| 20260510113053 | 54 | 0 | 0.0 | 1.0 | 0.00 | 0.00 | 0.00 | 96 | 1015.2 |
| 20260510112549 | 54 | 0 | 0.0 | 1.0 | 0.00 | 0.00 | 0.00 | 96 | 1015.1 |
| 20260510112048 | 53 | 0 | 0.0 | 0.0 | 0.00 | 0.00 | 0.00 | 96 | 1015.1 |
| 20260510111553 | 53 | 0 | 0.0 | 0.0 | 0.00 | 0.00 | 0.00 | 96 | 1015.1 |
| 20260510111048 | 52 | 0 | 0.0 | 0.0 | 0.00 | 0.00 | 0.00 | 95 | 1015.0 |
| 20260510110548 | 51 | 0 | 0.0 | 0.0 | 0.00 | 0.00 | 0.00 | 95 | 1014.9 |
| 20260510110054 | 51 | 0 | 0.0 | 0.0 | 0.00 | 0.00 | 0.00 | 95 | 1014.9 |
| 20260510105548 | 51 | 0 | 0.0 | 0.0 | 0.00 | 0.00 | 0.00 | 95 | 1014.7 |
| 20260510105045 | 51 | 0 | 0.0 | 0.0 | 0.00 | 0.00 | 0.00 | 95 | 1014.6 |
| 20260510104557 | 51 | 0 | 0.0 | 0.0 | 0.00 | 0.00 | 0.00 | 95 | 1014.6 |
| 20260510104044 | 51 | 0 | 0.0 | 0.0 | 0.00 | 0.00 | 0.00 | 95 | 1014.5 |
| 20260510103548 | 52 | 0 | 0.0 | 0.0 | 0.00 | 0.00 | 0.00 | 95 | 1014.5 |
| 20260510103052 | 52 | 0 | 0.0 | 0.0 | 0.00 | 0.00 | 0.00 | 95 | 1014.4 |
| 20260510102548 | 52 | 0 | 0.0 | 0.0 | 0.00 | 0.00 | 0.00 | 95 | 1014.3 |
| 20260510102045 | 52 | 0 | 0.0 | 0.0 | 0.00 | 0.00 | 0.00 | 95 | 1014.2 |
| 20260510101551 | 52 | 0 | 0.0 | 0.0 | 0.00 | 0.00 | 0.00 | 95 | 1014.2 |
| 20260510101048 | 52 | 0 | 0.0 | 0.0 | 0.00 | 0.00 | 0.00 | 95 | 1014.1 |
| 20260510100547 | 52 | 0 | 0.0 | 0.0 | 0.00 | 0.00 | 0.00 | 95 | 1014.0 |
| 20260510100100 | 53 | 0 | 0.0 | 0.0 | 0.00 | 0.00 | 0.00 | 95 | 1014.0 |
| 20260510095547 | 53 | 0 | 0.0 | 0.0 | 0.00 | 0.00 | 0.00 | 95 | 1013.9 |
| 20260510095048 | 53 | 0 | 0.0 | 0.0 | 0.00 | 0.00 | 0.00 | 95 | 1013.9 |
| 20260510094550 | 53 | 0 | 0.0 | 0.0 | 0.00 | 0.00 | 0.00 | 95 | 1013.9 |
| 20260510094045 | 53 | 0 | 0.0 | 0.0 | 0.00 | 0.00 | 0.00 | 95 | 1013.8 |
| 20260510093545 | 53 | 0 | 0.0 | 0.0 | 0.00 | 0.00 | 0.00 | 94 | 1013.8 |
| 20260510093101 | 53 | 0 | 0.0 | 0.0 | 0.00 | 0.00 | 0.00 | 94 | 1013.7 |
| 20260510092547 | 53 | 0 | 0.0 | 0.0 | 0.00 | 0.00 | 0.00 | 94 | 1013.7 |
| 20260510092046 | 54 | 0 | 0.0 | 0.0 | 0.00 | 0.00 | 0.00 | 94 | 1013.7 |
| 20260510091553 | 54 | 0 | 0.0 | 0.0 | 0.00 | 0.00 | 0.00 | 95 | 1013.6 |
| 20260510091047 | 54 | 0 | 0.0 | 0.0 | 0.00 | 0.00 | 0.00 | 95 | 1013.6 |
| 20260510090548 | 54 | 0 | 0.0 | 0.0 | 0.00 | 0.00 | 0.00 | 95 | 1013.7 |
| 20260510090112 | 54 | 0 | 0.0 | 0.0 | 0.00 | 0.00 | 0.00 | 95 | 1013.7 |
| 20260510085546 | 54 | 0 | 0.0 | 0.0 | 0.00 | 0.00 | 0.00 | 95 | 1013.7 |
| 20260510085051 | 54 | 0 | 0.0 | 0.0 | 0.00 | 0.00 | 0.00 | 95 | 1013.6 |
| 20260510084552 | 54 | 0 | 0.0 | 0.0 | 0.00 | 0.00 | 0.00 | 94 | 1013.5 |
| 20260510084044 | 54 | 0 | 0.0 | 0.0 | 0.00 | 0.00 | 0.00 | 94 | 1013.3 |
| 20260510083551 | 54 | 0 | 0.0 | 0.0 | 0.00 | 0.00 | 0.00 | 94 | 1013.3 |
| 20260510083100 | 54 | 0 | 0.0 | 0.0 | 0.00 | 0.00 | 0.00 | 94 | 1013.3 |
| 20260510082549 | 55 | 0 | 0.0 | 0.0 | 0.00 | 0.00 | 0.00 | 95 | 1013.4 |
| 20260510082048 | 55 | 0 | 0.0 | 0.0 | 0.00 | 0.00 | 0.00 | 94 | 1013.2 |
| 20260510081550 | 55 | 0 | 0.0 | 0.0 | 0.00 | 0.00 | 0.00 | 94 | 1013.2 |
| 20260510081047 | 55 | 0 | 0.0 | 0.0 | 0.00 | 0.00 | 0.00 | 94 | 1013.1 |
| 20260510080547 | 55 | 0 | 0.0 | 0.0 | 0.00 | 0.00 | 0.00 | 94 | 1013.0 |
| 20260510080052 | 55 | 0 | 0.0 | 0.0 | 0.00 | 0.00 | 0.00 | 94 | 1012.9 |
| 20260510075549 | 55 | 0 | 0.0 | 0.0 | 0.00 | 0.00 | 0.00 | 94 | 1012.9 |
| 20260510075048 | 55 | 0 | 0.0 | 0.0 | 0.00 | 0.00 | 0.00 | 94 | 1012.9 |
| 20260510074548 | 55 | 0 | 0.0 | 0.0 | 0.00 | 0.00 | 0.00 | 94 | 1012.9 |
| 20260510074047 | 55 | 0 | 0.0 | 0.0 | 0.00 | 0.00 | 0.00 | 94 | 1012.8 |
| 20260510073547 | 55 | 0 | 0.0 | 0.0 | 0.00 | 0.00 | 0.00 | 94 | 1012.9 |
| 20260510073055 | 55 | 0 | 0.0 | 0.0 | 0.00 | 0.00 | 0.00 | 94 | 1012.9 |
| 20260510072548 | 55 | 0 | 0.0 | 0.0 | 0.00 | 0.00 | 0.00 | 94 | 1012.9 |
| 20260510072047 | 55 | 0 | 0.0 | 0.0 | 0.00 | 0.00 | 0.00 | 94 | 1012.8 |
| 20260510071550 | 56 | 0 | 0.0 | 0.0 | 0.00 | 0.00 | 0.00 | 94 | 1012.8 |
| 20260510071044 | 56 | 0 | 0.0 | 0.0 | 0.00 | 0.00 | 0.00 | 94 | 1012.7 |
| 20260510070546 | 56 | 0 | 0.0 | 0.0 | 0.00 | 0.00 | 0.00 | 94 | 1012.7 |
| 20260510070051 | 56 | 0 | 0.0 | 0.0 | 0.00 | 0.00 | 0.00 | 94 | 1012.6 |
| 20260510065549 | 56 | 0 | 0.0 | 0.0 | 0.00 | 0.00 | 0.00 | 94 | 1012.7 |
| 20260510065049 | 56 | 0 | 0.0 | 0.0 | 0.00 | 0.00 | 0.00 | 94 | 1012.6 |
| 20260510064554 | 56 | 0 | 0.0 | 0.0 | 0.00 | 0.00 | 0.00 | 93 | 1012.7 |
| 20260510064048 | 56 | 0 | 0.0 | 0.0 | 0.00 | 0.00 | 0.00 | 93 | 1012.6 |
| 20260510063547 | 56 | 0 | 0.0 | 0.0 | 0.00 | 0.00 | 0.00 | 94 | 1012.7 |
| 20260510063056 | 56 | 0 | 0.0 | 0.0 | 0.00 | 0.00 | 0.00 | 93 | 1012.7 |
| 20260510062545 | 57 | 0 | 0.0 | 0.0 | 0.00 | 0.00 | 0.00 | 94 | 1012.7 |
| 20260510062047 | 57 | 0 | 0.0 | 0.0 | 0.00 | 0.00 | 0.00 | 93 | 1012.7 |
| 20260510061555 | 57 | 0 | 0.0 | 0.0 | 0.00 | 0.00 | 0.00 | 93 | 1012.9 |
| 20260510061044 | 57 | 0 | 0.0 | 0.0 | 0.00 | 0.00 | 0.00 | 93 | 1012.8 |
| 20260510060547 | 57 | 0 | 0.0 | 0.0 | 0.00 | 0.00 | 0.00 | 93 | 1012.9 |
| 20260510060051 | 57 | 0 | 0.0 | 0.0 | 0.00 | 0.00 | 0.00 | 93 | 1012.9 |
| 20260510055547 | 57 | 0 | 0.0 | 0.0 | 0.00 | 0.00 | 0.00 | 93 | 1012.9 |
| 20260510055044 | 57 | 0 | 0.0 | 0.0 | 0.00 | 0.00 | 0.00 | 93 | 1012.8 |
| 20260510054547 | 57 | 0 | 0.0 | 0.0 | 0.00 | 0.00 | 0.00 | 93 | 1012.8 |
| 20260510054043 | 57 | 0 | 0.0 | 0.0 | 0.00 | 0.00 | 0.00 | 93 | 1012.8 |
| 20260510053544 | 57 | 0 | 0.0 | 1.0 | 0.00 | 0.00 | 0.00 | 93 | 1012.9 |
| 20260510053055 | 58 | 0 | 0.0 | 1.0 | 0.00 | 0.00 | 0.00 | 93 | 1013.0 |
| 20260510052548 | 58 | 0 | 0.0 | 0.0 | 0.00 | 0.00 | 0.00 | 93 | 1013.1 |
| 20260510052048 | 58 | 0 | 0.0 | 0.0 | 0.00 | 0.00 | 0.00 | 93 | 1013.2 |
| 20260510051559 | 58 | 0 | 0.0 | 0.0 | 0.00 | 0.00 | 0.00 | 92 | 1013.2 |
| 20260510051047 | 58 | 0 | 0.0 | 0.0 | 0.00 | 0.00 | 0.00 | 93 | 1013.1 |
| 20260510050551 | 58 | 0 | 0.0 | 0.0 | 0.00 | 0.00 | 0.00 | 92 | 1013.1 |
| 20260510050055 | 58 | 0 | 0.0 | 0.0 | 0.00 | 0.00 | 0.00 | 92 | 1013.1 |
| 20260510045545 | 58 | 0 | 0.0 | 0.0 | 0.00 | 0.00 | 0.00 | 93 | 1013.1 |
| 20260510045045 | 58 | 0 | 0.0 | 0.0 | 0.00 | 0.00 | 0.00 | 92 | 1013.1 |
| 20260510044550 | 58 | 0 | 0.0 | 0.0 | 0.00 | 0.00 | 0.00 | 92 | 1013.2 |
| 20260510044044 | 58 | 0 | 0.0 | 0.0 | 0.00 | 0.00 | 0.00 | 92 | 1013.2 |
| 20260510043544 | 58 | 0 | 0.0 | 0.0 | 0.00 | 0.00 | 0.00 | 92 | 1013.3 |
| 20260510043053 | 58 | 0 | 0.0 | 0.0 | 0.00 | 0.00 | 0.00 | 92 | 1013.2 |
| 20260510042546 | 58 | 0 | 0.0 | 0.0 | 0.00 | 0.00 | 0.00 | 92 | 1013.2 |
| 20260510042045 | 58 | 0 | 0.0 | 0.0 | 0.00 | 0.00 | 0.00 | 91 | 1013.1 |
| 20260510041556 | 58 | 0 | 0.0 | 0.0 | 0.00 | 0.00 | 0.00 | 92 | 1013.2 |
| 20260510041048 | 58 | 0 | 0.0 | 0.0 | 0.00 | 0.00 | 0.00 | 91 | 1013.2 |
| 20260510040550 | 58 | 0 | 0.0 | 0.0 | 0.00 | 0.00 | 0.00 | 91 | 1013.2 |
| 20260510040058 | 59 | 0 | 0.0 | 0.0 | 0.00 | 0.00 | 0.00 | 91 | 1013.2 |
| 20260510035548 | 59 | 0 | 0.0 | 0.0 | 0.00 | 0.00 | 0.00 | 91 | 1013.1 |
| 20260510035045 | 59 | 0 | 0.0 | 0.0 | 0.00 | 0.00 | 0.00 | 91 | 1013.1 |
| 20260510034556 | 59 | 0 | 0.0 | 0.0 | 0.00 | 0.00 | 0.00 | 91 | 1013.1 |
| 20260510034048 | 59 | 0 | 0.0 | 0.0 | 0.00 | 0.00 | 0.00 | 90 | 1013.2 |
| 20260510033549 | 59 | 0 | 0.0 | 0.0 | 0.00 | 0.00 | 0.00 | 90 | 1013.2 |
| 20260510033101 | 59 | 0 | 0.0 | 0.0 | 0.00 | 0.00 | 0.00 | 90 | 1013.1 |
| 20260510032547 | 59 | 0 | 0.0 | 0.0 | 0.00 | 0.00 | 0.00 | 90 | 1013.2 |
| 20260510032047 | 59 | 0 | 0.0 | 0.0 | 0.00 | 0.00 | 0.00 | 90 | 1013.0 |
| 20260510031553 | 60 | 0 | 0.0 | 0.0 | 0.00 | 0.00 | 0.00 | 90 | 1013.1 |
| 20260510031044 | 60 | 0 | 0.0 | 0.0 | 0.00 | 0.00 | 0.00 | 89 | 1013.1 |
| 20260510030544 | 60 | 0 | 0.0 | 0.0 | 0.00 | 0.00 | 0.00 | 89 | 1013.1 |
| 20260510030048 | 60 | 0 | 0.0 | 0.0 | 0.00 | 0.00 | 0.00 | 89 | 1013.1 |
| 20260510025547 | 60 | 0 | 0.0 | 0.0 | 0.00 | 0.00 | 0.00 | 89 | 1013.1 |
| 20260510025047 | 60 | 0 | 0.0 | 0.0 | 0.00 | 0.00 | 0.00 | 89 | 1013.1 |
| 20260510024552 | 60 | 0 | 0.0 | 1.0 | 0.00 | 0.00 | 0.00 | 89 | 1013.0 |
| 20260510024050 | 60 | 0 | 0.0 | 1.0 | 0.00 | 0.00 | 0.00 | 88 | 1013.0 |
| 20260510023545 | 60 | 0 | 0.0 | 1.0 | 0.00 | 0.00 | 0.00 | 88 | 1013.0 |
| 20260510023055 | 60 | 0 | 0.0 | 0.0 | 0.00 | 0.00 | 0.00 | 88 | 1013.1 |
| 20260510022549 | 61 | 0 | 0.0 | 0.0 | 0.00 | 0.00 | 0.00 | 88 | 1012.9 |
| 20260510022048 | 61 | 0 | 0.0 | 0.0 | 0.00 | 0.00 | 0.00 | 87 | 1012.9 |
| 20260510021553 | 61 | 0 | 0.0 | 0.0 | 0.00 | 0.00 | 0.00 | 87 | 1012.8 |
| 20260510021047 | 61 | 0 | 0.0 | 0.0 | 0.00 | 0.00 | 0.00 | 86 | 1012.8 |
| 20260510020547 | 61 | 0 | 0.0 | 1.0 | 0.00 | 0.00 | 0.00 | 86 | 1012.7 |
| 20260510020057 | 62 | 0 | 0.0 | 1.0 | 0.00 | 0.00 | 0.00 | 86 | 1012.7 |
| 20260510015546 | 62 | 0 | 0.0 | 0.0 | 0.00 | 0.00 | 0.00 | 85 | 1012.8 |
| 20260510015044 | 62 | 0 | 0.0 | 0.0 | 0.00 | 0.00 | 0.00 | 85 | 1012.7 |
| 20260510014553 | 62 | 0 | 0.0 | 0.0 | 0.00 | 0.00 | 0.00 | 85 | 1012.7 |
| 20260510014045 | 62 | 0 | 0.0 | 1.0 | 0.00 | 0.00 | 0.00 | 84 | 1012.6 |
| 20260510013548 | 63 | 0 | 0.0 | 1.0 | 0.00 | 0.00 | 0.00 | 84 | 1012.4 |
| 20260510013055 | 63 | 0 | 0.0 | 1.0 | 0.00 | 0.00 | 0.00 | 83 | 1012.3 |
| 20260510012547 | 63 | 0 | 0.0 | 1.0 | 0.00 | 0.00 | 0.00 | 83 | 1012.3 |
| 20260510012049 | 63 | 0 | 0.0 | 1.0 | 0.00 | 0.00 | 0.00 | 83 | 1012.1 |
| 20260510011555 | 63 | 0 | 0.0 | 0.0 | 0.00 | 0.00 | 0.00 | 83 | 1011.8 |
| 20260510011044 | 63 | 0 | 0.0 | 0.0 | 0.00 | 0.00 | 0.00 | 82 | 1011.8 |
| 20260510010545 | 63 | 0 | 0.0 | 0.0 | 0.00 | 0.00 | 0.00 | 82 | 1011.8 |
| 20260510010056 | 64 | 0 | 0.0 | 0.0 | 0.00 | 0.00 | 0.00 | 81 | 1011.7 |
| 20260510005545 | 64 | 0 | 0.0 | 0.0 | 0.00 | 0.00 | 0.00 | 81 | 1011.6 |
| 20260510005044 | 64 | 0 | 0.0 | 0.0 | 0.00 | 0.00 | 0.00 | 81 | 1011.5 |
| 20260510004554 | 65 | 0 | 0.0 | 0.0 | 0.00 | 0.00 | 0.00 | 80 | 1011.5 |
| 20260510004044 | 65 | 0 | 0.0 | 0.0 | 0.00 | 0.00 | 0.00 | 80 | 1011.5 |
| 20260510003545 | 66 | 0 | 0.0 | 0.0 | 0.00 | 0.00 | 0.00 | 78 | 1011.4 |
| 20260510003103 | 66 | 0 | 0.0 | 0.0 | 0.00 | 0.00 | 0.00 | 78 | 1011.4 |
| 20260510002544 | 67 | 0 | 0.0 | 0.0 | 0.00 | 0.00 | 0.00 | 77 | 1011.3 |
| 20260510002048 | 67 | 0 | 0.0 | 0.0 | 0.00 | 0.00 | 0.00 | 77 | 1011.3 |
| 20260510001549 | 67 | 0 | 0.0 | 1.0 | 0.00 | 0.00 | 0.00 | 76 | 1011.2 |
| 20260510001044 | 68 | 0 | 0.0 | 2.0 | 0.00 | 0.00 | 0.00 | 76 | 1011.2 |
| 20260510000548 | 68 | 87 | 0.0 | 4.0 | 0.00 | 0.00 | 0.00 | 75 | 1011.1 |
| 20260510000054 | 68 | 0 | 0.0 | 4.0 | 0.00 | 0.00 | 0.00 | 74 | 1011.0 |
| 20260509235547 | 68 | 86 | 1.0 | 6.0 | 0.00 | 0.00 | 0.00 | 74 | 1011.1 |
| 20260509235048 | 69 | 114 | 1.0 | 6.0 | 0.00 | 0.00 | 0.00 | 73 | 1011.1 |
| 20260509234554 | 69 | 0 | 1.0 | 5.0 | 0.00 | 0.00 | 0.00 | 73 | 1011.0 |
| 20260509234049 | 69 | 109 | 0.0 | 7.0 | 0.00 | 0.00 | 0.00 | 73 | 1011.0 |
| 20260509233549 | 69 | 0 | 0.0 | 7.0 | 0.00 | 0.00 | 0.00 | 73 | 1010.9 |
| 20260509233051 | 70 | 74 | 0.0 | 7.0 | 0.00 | 0.00 | 0.00 | 72 | 1011.0 |
| 20260509232548 | 70 | 0 | 2.0 | 8.0 | 0.00 | 0.00 | 0.00 | 72 | 1010.7 |
| 20260509232045 | 70 | 91 | 2.0 | 8.0 | 0.00 | 0.00 | 0.00 | 72 | 1010.7 |
| 20260509231601 | 70 | 90 | 2.0 | 8.0 | 0.00 | 0.00 | 0.00 | 72 | 1010.5 |